Temperature
19 17 18 18 18 19 20 20 20 20 21 20 19 19 19 19 19 19 19 19 19 19 20 20 21 20 20 20 20 20 20 19 19 18 18 18 18 17 17 17 17 17 17 17
18 18 19 19 19 19 20 19 19 20 20 20 19 19 19 19 19 19 19 18 19 19 19 20 20 20 20 20 20 20 19 19 19 19 18 18 18 17 17 17 17 17 17 17
19 19 20 20 20 20 19 19 20 20 20 20 20 19 19 19 19 19 19 18 19 19 19 19 19 19 20 20 20 20 19 19 19 18 18 18 17 17 17 17 17 17 17 16
18 19 20 20 20 20 19 20 20 20 19 18 19 18 19 18 18 18 18 18 18 18 18 18 19 19 19 20 19 19 19 19 18 18 18 18 18 17 17 17 17 17 16 16
19 19 20 20 20 20 20 20 20 20 19 18 18 18 18 18 18 17 17 18 18 18 18 18 18 19 19 19 19 19 19 18 18 18 18 18 18 17 17 17 17 16 16 16
19 20 20 20 21 20 20 19 18 16 16 17 18 17 17 17 18 17 17 18 18 18 18 18 18 18 18 18 19 18 18 18 18 18 17 17 17 17 17 17 16 16 16 16
19 19 20 20 20 20 19 18 17 17 16 17 17 17 17 17 18 17 17 17 18 18 18 18 18 18 18 18 18 18 18 18 17 17 17 17 17 17 17 16 16 16 16 16
18 18 19 20 20 19 18 18 17 17 17 16 17 17 17 17 17 18 17 17 18 18 17 18 18 18 18 18 18 18 18 18 17 17 17 17 17 16 16 16 16 16 16 16
17 18 19 20 19 19 18 17 17 15 16 16 16 17 17 17 16 16 16 17 17 17 17 18 18 18 18 18 18 17 17 17 17 17 17 17 16 16 16 16 16 16 15 15
17 17 18 19 19 18 17 16 14 15 16 16 17 17 16 17 16 16 15 16 16 17 17 17 17 17 17 17 17 17 17 17 17 16 16 16 16 15 15 15 15 15 15 15
16 16 17 17 18 18 17 16 14 13 14 16 16 16 16 16 16 15 15 16 16 17 17 17 17 17 17 17 17 17 17 17 16 16 16 16 15 15 15 15 15 15 15 15
15 14 15 16 17 17 17 16 14 15 15 14 15 15 16 15 15 15 15 15 16 16 16 16 16 16 17 17 17 17 17 17 16 16 16 15 15 15 15 15 15 15 14 14
15 14 14 16 16 16 16 16 15 13 13 13 15 16 15 14 14 14 14 15 15 16 16 16 16 16 16 16 16 16 16 16 16 16 15 15 15 15 15 14 14 14 14 14
15 13 14 15 15 15 15 15 15 14 13 14 14 15 14 14 13 14 14 14 15 15 15 15 15 15 15 16 16 16 16 16 16 15 15 15 15 14 14 14 14 14 14 14
13 13 14 14 15 15 15 15 15 14 14 14 14 14 14 13 13 13 14 14 14 14 14 14 14 15 15 15 15 16 16 16 15 15 15 14 14 14 14 14 13 13 13 13
11 13 13 14 14 15 15 15 15 14 14 14 14 14 13 13 13 13 13 13 13 14 14 14 14 14 14 15 15 15 15 15 15 14 14 14 14 14 13 13 13 13 13 13
11 12 12 13 14 15 14 14 14 14 14 14 14 13 13 12 12 12 13 13 13 13 13 14 14 14 14 14 15 15 14 14 14 14 14 14 13 13 13 13 13 13 13 13
10 10 10 11 13 14 13 14 14 14 13 13 13 12 12 12 12 13 13 13 13 13 13 14 14 14 14 14 14 14 14 14 14 13 13 13 13 13 13 13 13 13 13 13
9 10 10 10 12 13 13 13 13 13 13 12 12 12 12 12 12 12 13 13 13 13 14 14 14 14 13 13 13 13 13 13 13 13 13 13 13 13 13 13 13 13 13 13
9 9 10 10 12 12 12 13 13 13 12 12 12 11 11 12 11 11 13 13 13 13 13 14 13 13 13 13 13 13 13 13 13 13 13 13 13 13 13 12 12 12 12 12
10 10 10 10 11 11 11 12 13 12 12 12 11 11 11 11 11 12 12 12 13 13 13 13 13 13 13 13 13 13 13 13 13 12 12 12 12 12 12 12 12 12 12 12
10 10 9 9 11 11 11 11 11 11 11 11 11 11 11 11 12 12 12 12 13 13 13 13 13 13 13 12 12 12 12 12 12 12 12 12 12 12 12 12 12 12 12 12
9 9 8 9 9 10 10 10 11 11 11 11 11 11 11 11 11 12 12 12 12 12 12 12 12 12 12 12 12 12 12 12 12 12 12 12 11 11 12 12 11 11 11 11
9 8 8 9 9 10 10 10 11 11 11 11 11 11 11 11 11 11 11 11 12 12 12 12 12 12 12 11 11 11 11 11 11 11 11 11 11 11 11 11 11 11 11 11
8 8 8 8 9 9 10 10 10 10 11 11 11 11 11 11 11 11 11 11 11 11 11 11 11 11 11 11 11 11 11 11 11 11 11 11 11 11 11 11 11 11 11 11
7 7 8 8 8 8 9 10 10 10 10 10 10 10 11 11 11 10 11 11 11 11 11 11 11 11 11 11 11 11 11 11 11 11 11 11 11 11 11 11 11 11 11 11
Wind_Speed
4 4 5 9 10 7 5 4 5 6 4 0 2 3 5 2 1 2 3 5 5 5 4 4 5 6 7 6 7 7 6 6 6 4 4 4 3 2 2 1 2 3 3 4
4 5 9 6 5 5 5 4 5 5 3 2 1 3 3 2 3 4 4 5 5 4 3 4 5 5 7 8 7 7 7 6 6 5 4 3 3 2 2 1 1 2 3 4
8 6 4 5 5 5 6 7 6 5 3 2 1 3 2 2 1 1 2 4 5 7 7 6 5 5 7 7 8 8 6 6 6 5 4 4 3 3 2 1 0 0 2 2
6 6 4 4 6 7 7 7 7 5 1 3 1 3 5 3 2 2 2 3 5 5 5 5 6 5 6 7 6 6 6 5 5 6 6 6 4 3 2 2 1 0 1 1
6 4 5 6 7 7 7 4 5 4 4 1 1 3 6 1 3 5 4 4 5 6 6 6 6 6 5 6 6 6 6 6 5 6 6 6 4 2 2 2 1 1 0 0
5 3 4 6 4 5 4 4 4 4 4 3 5 5 6 4 6 5 5 5 6 5 5 5 4 5 4 4 6 6 6 5 5 6 6 6 5 5 4 3 2 1 0 0
4 4 3 2 1 1 5 5 2 2 1 6 3 4 7 5 5 6 6 6 5 5 6 5 5 5 5 5 5 6 6 5 5 5 5 5 6 6 5 4 3 2 1 1
2 5 4 2 5 5 4 8 7 5 6 4 1 5 5 3 1 2 3 3 4 5 5 5 6 5 5 6 5 6 6 5 5 5 5 4 4 4 3 3 3 3 2 2
4 5 4 2 1 6 5 5 6 6 2 2 4 4 4 2 1 1 0 2 3 5 5 5 5 4 5 5 5 6 6 5 5 5 4 3 3 3 3 3 2 2 2 2
5 4 4 3 3 3 5 7 5 5 5 4 4 3 4 4 4 2 1 2 3 4 4 4 4 5 5 5 4 5 5 5 4 4 4 3 3 3 2 2 2 2 2 2
3 3 3 2 1 2 3 3 4 4 5 6 4 5 3 6 6 4 3 3 4 5 5 5 5 5 4 4 5 6 6 5 4 3 3 2 2 2 2 2 2 3 2 2
2 4 1 4 4 2 3 4 5 4 4 4 4 5 3 2 1 2 2 2 3 3 4 4 4 4 4 5 5 5 5 5 4 4 3 3 2 2 2 2 2 2 2 3
3 4 2 4 3 3 2 1 2 4 3 4 4 5 3 3 2 1 2 2 2 2 3 3 3 4 4 4 4 4 4 4 4 4 4 3 3 3 3 3 3 2 3 3
3 3 5 6 5 2 1 1 1 4 3 4 6 5 4 3 2 2 1 0 1 2 3 3 3 3 3 3 4 4 3 4 4 4 4 4 4 4 3 3 3 3 3 3
3 2 2 3 2 1 2 2 1 3 4 6 5 5 5 4 3 2 0 1 2 1 2 2 3 2 3 3 3 3 3 3 3 4 4 4 4 3 3 3 3 3 3 3
2 3 1 2 2 1 1 3 3 2 2 3 2 4 3 2 1 1 1 2 1 2 2 2 2 2 3 3 3 2 3 3 3 3 3 3 3 3 3 3 3 3 3 3
1 3 2 3 3 1 2 3 3 2 1 4 4 4 1 1 1 2 2 1 2 2 2 3 3 4 4 3 3 3 3 3 3 2 2 2 3 2 3 3 2 3 3 3
3 3 3 1 2 3 4 1 2 3 1 1 1 1 2 3 2 2 2 2 1 1 2 2 3 3 2 2 1 2 3 3 3 2 1 1 2 2 2 2 3 3 2 3
3 4 3 3 2 3 3 2 1 1 1 1 0 0 1 2 3 2 1 0 2 2 3 3 3 3 2 2 2 3 3 3 2 2 2 2 2 2 2 3 3 3 2 3
3 3 3 2 2 3 3 5 4 2 2 2 1 1 1 2 1 3 3 2 2 1 1 1 2 2 2 2 3 3 3 3 3 3 3 2 2 2 3 3 3 2 3 3
3 2 2 2 2 3 4 6 2 2 4 3 1 1 1 1 3 4 2 2 1 1 1 2 2 2 2 3 3 3 3 3 4 3 2 2 2 3 3 2 2 2 2 2
1 1 1 1 1 4 4 2 1 3 3 2 2 1 1 1 1 2 2 2 1 1 0 1 2 1 1 3 4 3 3 3 2 1 1 2 3 3 2 2 2 2 2 2
0 2 3 3 3 3 2 1 2 1 2 3 2 1 0 1 2 3 3 2 2 1 1 1 2 2 1 2 3 3 3 2 1 1 2 2 2 2 2 2 2 2 2 2
2 1 1 1 3 4 4 3 3 3 2 3 2 1 0 1 3 3 3 3 2 1 2 1 1 2 2 1 2 3 3 2 2 1 2 2 2 3 2 2 2 2 3 3
3 1 1 2 4 5 5 4 4 5 4 3 2 1 0 0 2 2 3 3 2 2 1 1 2 3 3 2 2 2 3 2 1 2 2 2 2 3 3 2 2 3 3 4
1 1 1 3 3 3 5 5 4 4 4 3 3 4 3 2 3 3 3 3 3 2 2 2 2 3 3 3 3 3 3 3 3 2 2 2 2 2 2 2 3 3 3 4
Wind_Direction
108 109 203 211 197 190 181 198 252 269 273 51 254 284 297 294 155 175 180 184 189 197 184 164 157 149 149 149 157 162 161 157 153 161 162 158 159 152 147 160 161 172 167 163
64 240 228 198 179 177 192 220 254 285 300 170 222 289 287 240 216 207 194 191 187 171 148 143 139 142 154 160 166 163 168 163 164 167 168 162 148 140 147 124 122 161 162 166
193 232 190 168 177 187 216 204 217 233 331 15 155 312 286 274 219 191 176 183 182 181 175 167 158 158 159 167 173 170 167 159 158 146 129 115 96 80 81 65 50 22 165 164
225 242 184 187 208 182 237 221 199 205 194 272 157 248 269 244 255 226 198 182 185 182 170 167 167 165 167 176 169 153 150 148 148 140 142 141 146 156 182 168 171 89 133 154
237 212 189 211 222 183 215 204 182 192 184 246 254 188 267 248 242 242 224 199 188 178 168 168 173 174 166 167 161 156 147 147 149 148 152 153 151 151 124 118 121 114 55 141
245 235 201 211 215 181 167 79 61 63 97 233 231 186 256 228 216 222 217 207 193 175 164 161 160 147 145 150 152 149 147 153 155 156 161 163 157 147 135 140 147 150 184 259
309 298 266 179 127 69 110 103 35 345 349 240 228 189 243 246 211 203 212 207 186 167 162 158 155 155 159 150 154 149 150 154 159 162 170 170 165 161 160 162 168 169 179 219
209 282 261 198 181 188 182 152 167 203 216 254 243 220 248 269 215 191 196 178 161 159 162 165 173 172 172 163 158 156 157 158 162 168 178 170 161 163 167 168 167 184 205 213
190 253 289 278 204 147 154 180 172 151 188 210 253 264 299 353 34 49 108 151 172 171 166 171 169 168 170 166 165 168 162 160 165 169 165 162 166 167 176 177 164 180 206 213
167 235 285 301 46 31 144 146 110 139 171 229 258 243 235 244 238 231 193 190 183 167 166 167 167 170 167 166 165 161 159 168 164 163 169 170 173 176 168 161 179 193 208 207
137 173 311 19 138 203 77 94 118 140 165 172 226 260 237 219 219 198 198 181 176 179 176 177 172 168 154 149 161 166 163 157 157 168 171 171 183 179 164 178 198 206 211 207
128 127 257 270 266 217 141 151 150 165 217 186 187 252 306 237 187 155 164 186 189 170 165 166 154 146 142 152 165 168 168 166 175 177 176 191 195 181 183 204 216 208 219 218
126 108 49 347 341 13 68 99 150 137 129 161 177 251 348 44 37 68 143 177 163 142 141 138 132 147 157 155 157 166 173 172 173 171 176 192 205 197 205 223 224 212 216 220
120 118 170 202 227 212 285 316 126 122 157 204 218 234 311 343 337 312 330 14 105 136 138 137 144 161 159 156 158 163 161 163 166 168 177 195 214 212 218 227 227 227 224 222
99 143 192 239 260 211 237 267 223 174 194 197 225 219 255 254 248 253 208 67 71 101 126 153 162 158 148 148 157 162 157 153 155 166 187 204 218 218 219 226 230 236 236 235
71 151 180 282 284 256 272 286 246 229 210 199 199 254 282 279 334 347 119 111 119 168 172 172 159 150 159 169 175 167 153 153 151 167 192 198 201 207 217 226 225 235 246 246
95 132 139 239 276 355 285 274 228 202 190 174 204 240 265 287 262 223 195 158 174 201 196 183 179 182 185 191 185 174 173 146 142 157 178 195 197 210 229 234 230 235 237 236
144 129 136 149 88 217 246 312 152 152 140 128 171 217 211 239 260 227 173 153 146 218 213 199 190 188 189 187 165 150 139 140 143 145 168 203 200 217 231 230 240 245 240 232
163 141 124 131 180 261 302 338 27 162 267 353 348 7 33 51 50 6 334 214 204 211 206 198 192 184 174 172 157 142 146 154 162 185 209 223 213 219 232 238 247 249 240 241
67 89 114 124 160 230 273 319 319 127 280 329 25 93 92 57 58 276 300 322 311 298 166 157 148 136 150 173 152 145 167 175 208 224 231 238 232 230 236 238 249 252 238 242
36 46 103 152 195 268 298 319 356 141 258 307 289 212 180 196 228 248 293 317 297 281 158 139 138 153 183 176 156 168 187 214 230 233 241 251 251 252 247 245 248 251 242 247
135 109 151 132 169 257 323 34 104 248 288 300 286 253 199 253 277 282 313 325 355 28 69 144 145 186 207 176 165 185 226 243 236 216 238 258 263 265 270 259 264 252 227 237
104 199 190 187 214 267 317 305 299 293 303 306 290 304 62 321 311 322 317 308 297 241 232 217 173 184 212 184 175 205 244 247 220 225 251 264 274 277 268 249 255 264 238 234
331 13 109 293 286 303 330 350 3 355 312 298 273 254 31 316 309 318 306 299 289 253 232 230 174 182 229 227 204 224 245 232 204 219 267 278 280 292 294 273 248 244 244 240
286 356 33 291 303 328 334 337 339 340 345 353 353 0 28 319 308 300 299 287 270 244 230 214 204 211 230 237 241 240 223 194 201 246 256 270 274 277 283 282 265 254 248 240
299 200 199 258 271 263 285 301 318 339 344 340 348 348 341 314 275 281 282 275 271 259 233 222 226 226 232 233 249 252 226 192 196 242 259 261 273 278 280 287 305 292 270 273
Height
1476 1483 1487 1485 1484 1486 1488 1492 1494 1489 1482 1485 1487 1486 1482 1480 1480 1480 1480 1481 1482 1484 1486 1488 1490 1493 1496 1499 1502 1504 1507 1509 1511 1512 1514 1515 1517 1518 1520 1521 1522 1523 1524 1525
1481 1483 1476 1476 1480 1483 1487 1492 1492 1487 1481 1484 1487 1486 1482 1480 1479 1479 1479 1480 1481 1483 1485 1487 1489 1491 1493 1497 1500 1503 1505 1507 1509 1511 1513 1515 1516 1518 1519 1520 1521 1523 1523 1524
1479 1475 1471 1475 1479 1483 1486 1489 1489 1488 1484 1483 1486 1489 1484 1479 1478 1478 1479 1479 1480 1481 1482 1484 1487 1489 1491 1495 1498 1501 1504 1506 1508 1510 1512 1514 1516 1517 1518 1519 1520 1521 1522 1523
1475 1470 1471 1474 1476 1479 1486 1478 1480 1483 1491 1496 1490 1503 1487 1481 1479 1477 1477 1478 1478 1480 1481 1483 1485 1487 1490 1493 1497 1500 1503 1505 1507 1509 1511 1512 1513 1514 1516 1518 1519 1520 1521 1522
1472 1468 1469 1472 1471 1472 1475 1473 1477 1481 1489 1496 1494 1500 1491 1481 1481 1477 1475 1476 1477 1478 1480 1481 1484 1486 1489 1492 1495 1498 1501 1503 1505 1508 1509 1511 1512 1513 1515 1516 1518 1519 1520 1520
1467 1464 1464 1464 1464 1466 1469 1475 1480 1488 1495 1504 1493 1499 1494 1483 1477 1474 1473 1474 1474 1476 1479 1481 1483 1485 1488 1491 1493 1497 1499 1502 1504 1506 1508 1510 1511 1512 1513 1514 1516 1517 1518 1519
1470 1465 1461 1461 1465 1467 1471 1486 1501 1503 1510 1504 1490 1493 1489 1474 1469 1470 1470 1470 1471 1474 1476 1479 1481 1484 1486 1489 1492 1494 1498 1500 1503 1505 1507 1508 1509 1510 1511 1513 1514 1515 1516 1516
1479 1478 1463 1460 1463 1469 1472 1479 1499 1507 1508 1501 1491 1491 1481 1470 1468 1468 1468 1468 1470 1473 1474 1477 1480 1482 1485 1487 1490 1493 1496 1498 1501 1503 1505 1506 1508 1508 1509 1511 1512 1513 1514 1514
1478 1476 1460 1458 1458 1462 1471 1477 1478 1494 1496 1500 1495 1485 1475 1469 1468 1468 1467 1468 1469 1471 1473 1476 1478 1481 1484 1486 1489 1492 1494 1497 1499 1501 1503 1504 1505 1506 1507 1509 1510 1511 1512 1513
1469 1475 1464 1459 1459 1461 1465 1471 1485 1494 1502 1502 1492 1486 1484 1474 1471 1468 1467 1468 1468 1470 1472 1475 1477 1480 1482 1485 1488 1491 1493 1495 1497 1499 1501 1502 1503 1505 1506 1507 1507 1508 1509 1510
1465 1474 1470 1465 1466 1468 1470 1474 1481 1489 1491 1498 1499 1490 1471 1469 1467 1467 1467 1467 1467 1469 1471 1474 1476 1478 1481 1484 1486 1489 1491 1493 1495 1498 1499 1501 1502 1503 1504 1505 1505 1506 1507 1508
1466 1475 1479 1470 1463 1461 1464 1470 1478 1486 1489 1490 1492 1488 1465 1465 1465 1466 1467 1468 1468 1469 1471 1473 1475 1477 1479 1482 1484 1487 1489 1491 1494 1496 1498 1499 1500 1501 1501 1502 1503 1504 1505 1506
1465 1475 1483 1478 1474 1467 1467 1469 1472 1478 1486 1491 1491 1484 1465 1465 1465 1465 1467 1467 1467 1468 1470 1472 1473 1476 1478 1480 1483 1485 1487 1489 1492 1494 1495 1497 1498 1498 1499 1500 1500 1501 1502 1503
1462 1473 1480 1483 1477 1472 1471 1470 1471 1476 1485 1486 1481 1476 1470 1467 1466 1465 1466 1466 1466 1467 1469 1470 1472 1474 1477 1479 1481 1484 1486 1488 1489 1491 1493 1494 1495 1496 1497 1497 1498 1499 1499 1500
1463 1473 1473 1472 1468 1468 1470 1469 1469 1472 1474 1477 1474 1473 1470 1467 1466 1466 1466 1466 1466 1467 1468 1470 1472 1474 1476 1478 1480 1482 1484 1485 1487 1489 1490 1491 1493 1494 1494 1495 1495 1496 1497 1497
1466 1471 1472 1472 1468 1467 1469 1468 1468 1469 1470 1471 1470 1471 1466 1466 1466 1466 1465 1466 1466 1467 1468 1470 1472 1474 1475 1477 1479 1481 1482 1483 1485 1487 1488 1489 1490 1491 1492 1492 1493 1493 1494 1494
1469 1472 1476 1477 1470 1467 1473 1469 1467 1467 1466 1467 1470 1469 1466 1466 1465 1465 1465 1465 1466 1467 1468 1469 1471 1473 1475 1476 1478 1479 1480 1482 1484 1485 1486 1487 1488 1488 1489 1489 1490 1490 1491 1491
1470 1473 1478 1479 1476 1480 1472 1463 1462 1464 1465 1465 1465 1464 1464 1464 1464 1464 1464 1465 1466 1467 1468 1469 1470 1472 1474 1475 1477 1478 1480 1481 1482 1483 1484 1485 1485 1486 1486 1486 1487 1487 1487 1487
1466 1471 1478 1482 1480 1475 1468 1464 1465 1466 1467 1465 1465 1464 1464 1464 1464 1464 1464 1464 1465 1466 1467 1468 1470 1471 1472 1474 1476 1477 1478 1480 1481 1481 1482 1483 1483 1483 1483 1483 1484 1484 1484 1484
1468 1470 1476 1479 1479 1479 1472 1464 1462 1465 1468 1464 1463 1464 1464 1463 1466 1465 1464 1464 1464 1464 1465 1467 1468 1470 1471 1473 1475 1476 1476 1478 1478 1479 1480 1481 1481 1481 1481 1481 1481 1481 1481 1481
1473 1475 1477 1478 1478 1475 1469 1464 1462 1471 1470 1464 1463 1463 1463 1463 1464 1464 1463 1463 1463 1464 1464 1466 1467 1468 1470 1471 1473 1474 1475 1476 1477 1478 1478 1479 1478 1479 1478 1478 1478 1479 1478 1478
1476 1477 1479 1480 1480 1479 1468 1466 1468 1469 1464 1463 1462 1462 1462 1462 1462 1462 1462 1462 1462 1462 1463 1464 1465 1466 1468 1469 1471 1472 1473 1474 1475 1476 1476 1476 1476 1476 1476 1475 1475 1476 1475 1475
1476 1477 1476 1477 1478 1471 1468 1467 1466 1465 1464 1463 1462 1462 1462 1461 1461 1461 1461 1461 1461 1462 1462 1463 1464 1465 1466 1468 1469 1470 1471 1472 1473 1473 1474 1474 1474 1474 1473 1473 1473 1472 1472 1472
1475 1474 1475 1474 1471 1469 1468 1466 1465 1464 1463 1462 1461 1461 1461 1460 1460 1460 1460 1460 1460 1460 1461 1462 1462 1463 1464 1466 1467 1468 1469 1470 1471 1471 1471 1471 1471 1471 1471 1470 1470 1470 1469 1469
1477 1475 1475 1473 1470 1468 1466 1466 1465 1464 1463 1462 1461 1461 1460 1460 1459 1459 1459 1458 1458 1459 1459 1460 1461 1462 1463 1464 1465 1466 1467 1467 1468 1468 1468 1468 1468 1468 1467 1467 1467 1467 1467 1467
1476 1475 1475 1473 1470 1469 1467 1465 1464 1463 1462 1462 1461 1460 1459 1459 1458 1457 1457 1457 1457 1457 1457 1458 1459 1459 1460 1461 1463 1464 1464 1465 1465 1465 1464 1465 1465 1465 1464 1464 1464 1464 1464 1464